#timestamp,LO_Frequency,Hit,StdDev 
1628262015.3,286047003.6,N
1628262035.1,286047003.7,N
1628262055.9,286047002.8,N
1628262075.7,286047001.0,N
1628262095.5,286046998.3,N
1628262115.4,286046996.8,N
1628262135.2,286046997.3,N
1628262155.0,286046996.3,N
1628262155.9,286046996.3,N
1628262175.8,286046993.3,N
1628262195.6,286046996.0,N
1628262215.5,286046993.6,N
1628262235.3,286046992.3,N
1628262255.1,286046992.2,N
1628262275.9,286046991.9,N
1628262295.7,286046992.5,N
1628262315.6,286046992.5,N
1628262335.4,286046992.4,N
1628262355.2,286046992.3,N
1628262375.1,286046993.6,N
1628262376.0,286046993.6,N
1628262395.8,286046995.3,N
1628262415.6,286046995.0,N
1628262435.5,286046997.9,N
1628262455.3,286046997.8,N
1628262475.2,286046997.5,N
1628262495.9,286046996.1,N
1628262515.7,286046994.0,N
1628262535.6,286046993.6,N
1628262555.4,286046993.4,N
1628262575.2,286046993.6,N
1628262595.1,286046993.6,N
1628262596.0,286046993.6,N
1628262615.8,286046991.9,Y
1628262635.7,286046999.2,P
1628262655.5,286046997.0,N
1628262675.3,286046998.7,N
1628262695.2,286047001.0,N
1628262715.0,286047000.9,N
1628262715.9,286047000.9,N
1628262735.8,286047000.4,N
1628262755.6,286046999.7,N
1628262775.4,286047000.4,N
1628262795.3,286047000.5,N
1628262815.1,286046999.7,N
1628262835.8,286047002.8,N
1628262855.7,286047000.3,N
1628262875.5,286047002.8,N
1628262895.4,286047002.6,N
1628262915.2,286047002.8,N
1628262935.0,286047001.8,N
1628262935.9,286047001.8,N
1628262955.8,286047001.3,N
1628262975.6,286047001.9,N
1628262995.4,286047002.5,N
1628263015.3,286047001.9,N
1628263035.1,286047001.9,N
1628263055.9,286047001.8,N
1628263075.7,286047001.8,N
1628263095.5,286047002.3,N
1628263115.4,286047001.4,N
1628263135.2,286047001.6,N
1628263155.0,286047001.8,N
1628263155.9,286047001.8,N
1628263175.8,286047004.4,Y
1628263195.6,286047000.2,P
1628263215.5,286047000.2,N
1628263235.3,286047000.0,N
1628263255.1,286047000.2,N
1628263275.9,286046999.9,N
1628263295.7,286047000.5,N
1628263315.5,286046999.7,N
1628263335.4,286046999.7,N
1628263355.2,286047000.5,N
1628263375.1,286047002.4,Y
1628263376.0,286047002.4,P
1628263395.8,286047002.5,N
1628263415.6,286047002.7,N
1628263435.5,286047000.0,N
1628263455.3,286047000.5,N
1628263475.1,286046998.2,N
1628263495.9,286047000.3,N
1628263515.7,286047000.2,N
1628263535.6,286047000.1,N
1628263555.4,286047002.8,N
1628263575.2,286047002.6,N
1628263595.1,286047000.4,N
1628263596.0,286047000.4,N
1628263615.8,286047000.7,N
1628263635.7,286046998.5,N
1628263655.5,286047000.5,N
1628263675.3,286047000.6,N
1628263695.2,286047002.8,N
1628263715.0,286047001.6,N
1628263715.9,286047001.6,N
1628263735.7,286047002.0,N
1628263755.6,286047001.8,N
1628263775.4,286047002.7,N
1628263795.3,286047002.5,N
1628263815.1,286046999.8,N
1628263816.0,286046999.8,N
1628263835.8,286046999.8,N
1628263855.7,286046999.7,N
1628263875.5,286047002.1,N
1628263895.3,286047001.6,N
1628263915.2,286047003.8,N
1628263935.0,286047005.8,Y
1628263935.9,286047005.8,P
1628263955.8,286047003.3,N
1628263975.6,286047003.1,N
1628263995.4,286047003.4,N
1628264015.3,286047004.8,Y
1628264035.1,286047002.3,P
1628264055.9,286047003.9,P
1628264075.7,286047004.2,P
1628264095.5,286047003.8,Y
1628264115.4,286047000.2,P
1628264135.2,286047002.4,N
1628264155.0,286047001.3,N
1628264155.9,286047001.3,N
1628264175.8,286047004.3,Y
1628264195.6,286047000.4,P
1628264215.5,286047001.2,N
1628264235.3,286047001.1,N
1628264255.1,286047000.5,N
1628264275.9,286047000.3,N
1628264295.7,286047000.6,N
1628264315.5,286046999.8,N
1628264335.4,286046999.9,N
1628264355.2,286047000.8,N
1628264375.1,286046998.6,N
1628264376.0,286046998.6,N
1628264395.8,286046999.4,N
1628264415.7,286046996.5,Y
1628264435.5,286046996.7,P
1628264455.3,286046997.5,N
1628264475.2,286046995.0,P
1628264495.0,286046996.1,N
1628264495.9,286046996.1,N
1628264515.7,286046996.4,N
1628264535.6,286046993.9,Y
1628264555.4,286046996.2,P
1628264575.3,286046996.3,P
1628264595.1,286046996.3,P
1628264615.9,286046993.7,Y
1628264635.7,286046997.5,P
1628264655.5,286046996.5,P
1628264675.4,286046996.6,P
1628264695.2,286046997.4,Y
1628264715.1,286047000.0,P
1628264716.0,286047000.0,N
1628264735.8,286046999.9,N
1628264755.7,286047001.2,N
1628264775.5,286046999.1,N
1628264795.3,286046999.0,N
1628264815.2,286046999.0,N
1628264835.0,286046998.5,N
1628264835.9,286046998.5,N
1628264855.7,286046996.9,N
1628264875.6,286046998.5,N
1628264895.4,286046998.7,N
1628264915.3,286046998.7,N
1628264935.1,286046998.7,N
1628264936.0,286046998.7,N
1628264955.8,286046996.6,Y
1628264975.7,286047001.1,P
1628264995.5,286047002.4,N
1628265015.3,286047002.3,N
1628265035.2,286047000.0,N
1628265055.0,286047002.6,N
1628265055.9,286047002.6,N
1628265075.8,286047001.9,N
1628265095.6,286047001.9,N
1628265115.4,286047002.7,N
1628265135.3,286047002.2,N
1628265155.1,286047001.5,N
1628265175.8,286047001.3,N
1628265195.7,286047001.3,N
1628265215.5,286047001.4,N
1628265235.4,286047004.2,Y
1628265255.2,286047002.5,P
1628265275.0,286047002.5,P
1628265275.9,286047002.5,P
1628265295.8,286047002.5,Y
1628265315.6,286047001.0,P
1628265335.5,286046998.3,N
1628265355.3,286046998.5,N
1628265375.1,286047001.1,N
1628265395.9,286046998.5,N
1628265415.7,286046998.3,N
1628265435.5,286046998.3,N
1628265455.4,286046999.1,N
1628265475.2,286046999.6,N
1628265495.0,286046999.0,N
1628265496.0,286046999.0,N
1628265515.8,286047000.5,N
1628265535.6,286047000.2,N
1628265555.5,286047000.1,N
1628265575.3,286047002.6,N
1628265595.1,286046999.8,N
